GW7935 Weather Reports


Display with metric or nautical units.
time (UTC)temp
F
wind
direction
speed
MPH
gust
MPH
rain 1hr
in
rain 24hr
in
rain mn
in
humidity
%
barometer
mb
20260901121744 54 19 3.0 3.0 0.00 0.00 0.00 90 1025.5
20260901121243 55 105 5.0 6.0 0.00 0.00 0.00 90 1025.1
20260901120743 55 74 3.0 3.0 0.00 0.00 0.00 89 1025.3
20260901120243 55 93 0.0 2.0 0.00 0.00 0.00 88 1025.1
20260901115743 55 106 2.0 3.0 0.00 0.00 0.00 88 1025.1
20260901115243 55 203 2.0 2.0 0.00 0.00 0.00 88 1025.0
20260901114743 55 80 0.0 3.0 0.00 0.00 0.00 88 1025.0
20260901114244 55 114 1.0 3.0 0.00 0.00 0.00 89 1025.0
20260901113743 55 118 4.0 5.0 0.00 0.00 0.00 89 1025.1
20260901113243 56 89 4.0 5.0 0.00 0.00 0.00 89 1024.8
20260901112744 56 98 2.0 2.0 0.00 0.00 0.00 88 1024.6
20260901112244 56 57 0.0 2.0 0.00 0.00 0.00 87 1024.7
20260901111743 56 27 4.0 4.0 0.00 0.00 0.00 87 1024.9
20260901111244 56 115 1.0 2.0 0.00 0.00 0.00 87 1024.6
20260901110744 56 128 1.0 2.0 0.00 0.00 0.00 87 1024.4
20260901110243 56 120 2.0 3.0 0.00 0.00 0.00 87 1024.7
20260901105743 56 88 4.0 4.0 0.00 0.00 0.00 87 1024.6
20260901105241 56 74 2.0 4.0 0.00 0.00 0.00 86 1024.5
20260901104742 56 81 1.0 2.0 0.00 0.00 0.00 85 1024.5
20260901104241 57 103 2.0 2.0 0.00 0.00 0.00 85 1024.4
20260901103741 57 111 2.0 2.0 0.00 0.00 0.00 85 1024.5
20260901103242 57 112 1.0 2.0 0.00 0.00 0.00 85 1024.4
20260901102741 57 77 2.0 3.0 0.00 0.00 0.00 85 1024.4
20260901102241 57 81 0.0 1.0 0.00 0.00 0.00 85 1024.4
20260901101741 57 38 0.0 1.0 0.00 0.00 0.00 85 1024.4
20260901101241 57 37 0.0 0.0 0.00 0.00 0.00 85 1024.6
20260901100741 57 77 2.0 3.0 0.00 0.00 0.00 85 1024.3
20260901100242 58 99 4.0 4.0 0.00 0.00 0.00 85 1024.3
20260901095741 58 84 1.0 2.0 0.00 0.00 0.00 84 1024.4
20260901095241 58 114 0.0 2.0 0.00 0.00 0.00 84 1024.0
20260901094741 58 76 0.0 2.0 0.00 0.00 0.00 84 1023.9
20260901094241 58 88 3.0 4.0 0.00 0.00 0.00 85 1023.8
20260901093741 58 87 3.0 3.0 0.00 0.00 0.00 83 1023.8
20260901093241 59 12 3.0 3.0 0.00 0.00 0.00 82 1023.9
20260901092742 59 45 1.0 2.0 0.00 0.00 0.00 82 1023.9
20260901092241 59 50 3.0 3.0 0.00 0.00 0.00 82 1024.0
20260901091741 59 129 0.0 0.0 0.00 0.00 0.00 82 1023.9
20260901091242 59 24 2.0 3.0 0.00 0.00 0.00 82 1023.9
20260901090741 59 78 1.0 2.0 0.00 0.00 0.00 81 1023.8
20260901090241 59 88 2.0 3.0 0.00 0.00 0.00 81 1023.8
20260901085741 59 71 3.0 4.0 0.00 0.00 0.00 80 1023.9
20260901085241 59 62 0.0 0.0 0.00 0.00 0.00 80 1023.8
20260901084741 60 48 1.0 1.0 0.00 0.00 0.00 80 1023.8
20260901084241 60 126 1.0 2.0 0.00 0.00 0.00 79 1023.8
20260901083741 60 91 2.0 3.0 0.00 0.00 0.00 79 1023.8
20260901083242 60 88 4.0 4.0 0.00 0.00 0.00 80 1023.4
20260901082742 60 82 1.0 2.0 0.00 0.00 0.00 80 1023.6
20260901082241 60 132 2.0 2.0 0.00 0.00 0.00 79 1023.8
20260901081741 60 69 2.0 2.0 0.00 0.00 0.00 79 1023.5
20260901081241 60 89 0.0 2.0 0.00 0.00 0.00 79 1023.7
20260901080742 60 45 2.0 3.0 0.00 0.00 0.00 78 1023.7
20260901080241 60 93 3.0 3.0 0.00 0.00 0.00 78 1023.8
20260901075741 60 87 1.0 2.0 0.00 0.00 0.00 78 1023.5
20260901075241 61 50 0.0 1.0 0.00 0.00 0.00 78 1023.8
20260901074741 61 74 2.0 3.0 0.00 0.00 0.00 78 1023.6
20260901074241 61 89 4.0 4.0 0.00 0.00 0.00 78 1023.8
20260901073741 61 112 2.0 2.0 0.00 0.00 0.00 76 1023.5
20260901073241 61 191 0.0 2.0 0.00 0.00 0.00 75 1023.7
20260901072741 61 184 0.0 2.0 0.00 0.00 0.00 76 1023.7
20260901072241 61 266 0.0 4.0 0.00 0.00 0.00 76 1023.8
20260901071741 61 249 2.0 4.0 0.00 0.00 0.00 76 1023.9
20260901071242 61 248 1.0 2.0 0.00 0.00 0.00 76 1024.2
20260901070741 61 212 0.0 2.0 0.00 0.00 0.00 76 1023.9
20260901070241 62 218 0.0 1.0 0.00 0.00 0.00 76 1023.6
20260901065741 62 149 1.0 2.0 0.00 0.00 0.00 75 1023.3
20260901065241 62 128 2.0 2.0 0.00 0.00 0.00 75 1023.5
20260901064741 62 153 1.0 2.0 0.00 0.00 0.00 75 1023.2
20260901064241 62 158 1.0 2.0 0.00 0.00 0.00 74 1023.3
20260901063741 63 150 0.0 2.0 0.00 0.00 0.00 74 1023.7
20260901063241 63 244 2.0 2.0 0.00 0.00 0.00 74 1023.4
20260901062741 63 218 2.0 3.0 0.00 0.00 0.00 74 1023.6
20260901062242 63 252 3.0 5.0 0.00 0.00 0.00 74 1023.5
20260901061742 63 262 2.0 5.0 0.00 0.00 0.00 74 1023.5
20260901061241 63 261 4.0 5.0 0.00 0.00 0.00 74 1023.4
20260901060741 63 233 0.0 4.0 0.00 0.00 0.00 74 1023.6
20260901060240 63 215 2.0 4.0 0.00 0.00 0.00 74 1023.4
20260901055739 64 200 2.0 4.0 0.00 0.00 0.00 73 1023.2
20260901055239 64 210 0.0 2.0 0.00 0.00 0.00 72 1023.0
20260901054739 64 248 1.0 3.0 0.00 0.00 0.00 72 1023.2
20260901054239 64 351 2.0 6.0 0.00 0.00 0.00 72 1023.3
20260901053740 64 323 0.0 3.0 0.00 0.00 0.00 72 1023.5
20260901053239 64 140 3.0 3.0 0.00 0.00 0.00 72 1023.6
20260901052739 64 134 2.0 3.0 0.00 0.00 0.00 73 1023.6
20260901052239 65 161 1.0 2.0 0.00 0.00 0.00 72 1023.6
20260901051740 65 147 1.0 2.0 0.00 0.00 0.00 72 1023.8
20260901051239 65 227 1.0 3.0 0.00 0.00 0.00 73 1023.8
20260901050739 65 256 1.0 5.0 0.00 0.00 0.00 72 1023.9
20260901050239 65 246 2.0 4.0 0.00 0.00 0.00 73 1024.1
20260901045739 65 269 2.0 4.0 0.00 0.00 0.00 74 1023.8
20260901045239 65 172 0.0 2.0 0.00 0.00 0.00 75 1024.2
20260901044740 65 75 0.0 2.0 0.00 0.00 0.00 74 1024.0
20260901044239 65 135 0.0 2.0 0.00 0.00 0.00 73 1024.3
20260901043739 65 258 2.0 4.0 0.00 0.00 0.00 73 1024.3
20260901043238 66 232 2.0 4.0 0.00 0.00 0.00 71 1024.3
20260901042738 66 167 0.0 2.0 0.00 0.00 0.00 70 1024.4
20260901042236 66 209 2.0 3.0 0.00 0.00 0.00 69 1024.6
20260901041736 66 215 2.0 4.0 0.00 0.00 0.00 69 1024.6
20260901041239 67 218 0.0 2.0 0.00 0.00 0.00 68 1024.6
20260901040736 67 222 0.0 5.0 0.00 0.00 0.00 67 1024.5
20260901040237 67 246 1.0 3.0 0.00 0.00 0.00 68 1024.5
20260901035737 67 232 2.0 4.0 0.00 0.00 0.00 68 1024.6
20260901035236 67 196 2.0 3.0 0.00 0.00 0.00 70 1024.6
20260901034736 67 113 0.0 2.0 0.00 0.00 0.00 72 1024.6
20260901034237 67 97 1.0 6.0 0.00 0.00 0.00 73 1024.8
20260901033736 67 86 3.0 3.0 0.00 0.00 0.00 73 1024.7
20260901033236 67 86 2.0 3.0 0.00 0.00 0.00 72 1024.9
20260901032737 67 46 1.0 1.0 0.00 0.00 0.00 72 1025.0
20260901032237 67 301 1.0 2.0 0.00 0.00 0.00 71 1025.3
20260901031736 67 269 0.0 1.0 0.00 0.00 0.00 69 1025.0
20260901031236 67 162 0.0 1.0 0.00 0.00 0.00 69 1024.8
20260901030736 67 134 1.0 2.0 0.00 0.00 0.00 68 1024.9
20260901030236 67 50 1.0 1.0 0.00 0.00 0.00 70 1025.3
20260901025737 67 48 0.0 0.0 0.00 0.00 0.00 70 1025.4
20260901025236 67 31 1.0 2.0 0.00 0.00 0.00 70 1025.2
20260901024736 68 109 0.0 1.0 0.00 0.00 0.00 70 1025.4
20260901024236 68 123 0.0 2.0 0.00 0.00 0.00 70 1025.1
20260901023737 68 93 3.0 3.0 0.00 0.00 0.00 69 1025.3
20260901023236 69 113 1.0 2.0 0.00 0.00 0.00 65 1025.1
20260901022736 69 84 1.0 2.0 0.00 0.00 0.00 67 1024.9
20260901022236 69 51 2.0 2.0 0.00 0.00 0.00 67 1025.0
20260901021736 69 68 1.0 2.0 0.00 0.00 0.00 67 1025.1
20260901021236 70 75 3.0 4.0 0.00 0.00 0.00 68 1025.0
20260901020736 70 91 2.0 3.0 0.00 0.00 0.00 65 1024.9
20260901020236 71 34 2.0 3.0 0.00 0.02 0.00 60 1024.9
20260901015735 71 45 1.0 1.0 0.00 0.02 0.00 60 1024.7
20260901015236 71 14 0.0 2.0 0.00 0.02 0.00 60 1024.8
20260901014735 72 142 0.0 1.0 0.00 0.02 0.00 60 1024.9
20260901014235 72 142 1.0 2.0 0.00 0.02 0.00 60 1024.8
20260901013735 72 147 2.0 3.0 0.00 0.02 0.00 59 1024.8
20260901013236 73 108 2.0 3.0 0.00 0.02 0.00 59 1024.9
20260901012735 73 120 4.0 4.0 0.00 0.02 0.00 58 1024.8
20260901012235 74 122 3.0 4.0 0.00 0.02 0.00 57 1024.9
20260901011735 74 113 2.0 4.0 0.00 0.02 0.00 57 1024.7
20260901011235 74 134 3.0 4.0 0.00 0.02 0.00 57 1024.8
20260901010735 74 125 4.0 4.0 0.00 0.02 0.00 57 1024.7
20260901010235 74 151 2.0 4.0 0.00 0.34 0.00 58 1024.6
20260901005735 74 156 3.0 4.0 0.00 0.34 0.00 59 1025.0
20260901005236 74 134 3.0 4.0 0.00 0.34 0.00 59 1025.2
20260901004735 75 137 4.0 5.0 0.00 0.34 0.00 58 1025.0
20260901004235 75 149 3.0 4.0 0.00 0.34 0.00 58 1025.0
20260901003735 76 211 1.0 3.0 0.00 0.34 0.00 57 1025.0
20260901003235 76 148 3.0 4.0 0.00 0.34 0.00 58 1025.1
20260901002735 76 125 2.0 2.0 0.00 0.34 0.00 57 1024.5
20260901002235 76 151 4.0 4.0 0.00 0.34 0.00 58 1024.7
20260901001735 76 173 0.0 4.0 0.00 0.34 0.00 58 1024.9
20260901001235 76 166 3.0 3.0 0.00 0.34 0.00 57 1024.9
20260901000735 76 179 3.0 4.0 0.00 0.34 0.00 57 1024.7
20260901000235 76 121 4.0 7.0 0.00 0.34 0.00 57 1024.8
20260831235735 76 113 4.0 4.0 0.00 0.34 0.00 57 1024.7
20260831235235 76 133 3.0 4.0 0.00 0.34 0.00 57 1024.8
20260831234736 76 170 2.0 4.0 0.00 0.34 0.00 57 1024.9
20260831234235 76 162 6.0 6.0 0.00 0.34 0.00 58 1024.7
20260831233735 76 129 3.0 4.0 0.00 0.34 0.00 58 1024.8
20260831233235 76 105 4.0 5.0 0.00 0.34 0.00 57 1024.9
20260831232734 76 123 3.0 4.0 0.00 0.34 0.00 57 1024.9
20260831232234 76 155 3.0 6.0 0.00 0.34 0.00 58 1024.9
20260831231734 76 123 4.0 7.0 0.00 0.34 0.00 58 1024.8
20260831231235 76 148 8.0 9.0 0.00 0.34 0.00 58 1025.1
20260831230735 76 176 4.0 6.0 0.00 0.34 0.00 57 1025.1
20260831230234 76 171 3.0 6.0 0.00 0.36 0.00 58 1025.0
20260831225734 76 116 5.0 8.0 0.00 0.36 0.00 57 1025.3
20260831225234 76 160 4.0 6.0 0.00 0.36 0.00 57 1025.1
20260831224735 76 111 6.0 7.0 0.00 0.36 0.00 58 1025.1
20260831224235 75 112 2.0 5.0 0.00 0.36 0.00 57 1025.3
20260831223734 75 126 4.0 4.0 0.00 0.36 0.00 55 1025.1
20260831223234 76 70 5.0 6.0 0.00 0.36 0.00 56 1025.2
20260831222734 76 153 5.0 6.0 0.00 0.36 0.00 56 1025.1
20260831222233 76 160 4.0 6.0 0.00 0.36 0.00 55 1025.1
20260831221733 76 117 3.0 5.0 0.00 0.36 0.00 56 1025.1
20260831221233 76 97 2.0 3.0 0.00 0.36 0.00 57 1025.2
20260831220733 76 173 2.0 5.0 0.00 0.36 0.00 56 1025.3
20260831220234 76 139 4.0 4.0 0.00 0.50 0.00 55 1025.4
20260831215732 76 158 4.0 6.0 0.00 0.50 0.00 56 1025.3
20260831215233 76 175 3.0 6.0 0.00 0.50 0.00 56 1025.6
20260831214733 76 164 1.0 3.0 0.00 0.50 0.00 55 1025.6
20260831214232 76 124 3.0 4.0 0.00 0.50 0.00 55 1025.2
20260831213733 76 154 6.0 6.0 0.00 0.50 0.00 55 1025.4
20260831213232 76 181 1.0 3.0 0.00 0.50 0.00 55 1025.7
20260831212732 76 210 1.0 3.0 0.00 0.50 0.00 54 1025.8
20260831212232 76 176 3.0 5.0 0.00 0.50 0.00 56 1026.0
20260831211732 76 144 4.0 8.0 0.00 0.50 0.00 54 1026.0
20260831211232 76 104 3.0 3.0 0.00 0.50 0.00 56 1026.1
20260831210732 75 66 5.0 5.0 0.00 0.50 0.00 56 1026.3
20260831210232 75 102 6.0 6.0 0.00 0.50 0.00 55 1026.3
20260831205732 74 108 5.0 8.0 0.00 0.50 0.00 56 1026.1
20260831205233 74 143 5.0 8.0 0.00 0.50 0.00 57 1026.2
20260831204732 74 168 6.0 8.0 0.00 0.50 0.00 57 1026.3
20260831204232 74 111 4.0 6.0 0.00 0.50 0.00 57 1026.3
20260831203732 74 127 4.0 6.0 0.00 0.50 0.00 56 1026.7
20260831203232 74 156 8.0 8.0 0.00 0.50 0.00 57 1026.8
20260831202733 74 148 5.0 8.0 0.00 0.50 0.00 56 1027.0
20260831202232 74 135 9.0 12.0 0.00 0.50 0.00 56 1026.9
20260831201732 75 126 4.0 6.0 0.00 0.50 0.00 55 1026.9
20260831201232 75 87 1.0 6.0 0.00 0.50 0.00 54 1026.7
20260831200732 75 69 4.0 8.0 0.00 0.50 0.00 55 1027.0
20260831200232 74 109 5.0 7.0 0.00 0.50 0.00 55 1027.1
20260831195733 74 48 4.0 7.0 0.00 0.50 0.00 55 1027.1
20260831195232 74 86 5.0 7.0 0.00 0.50 0.00 56 1027.4
20260831194732 74 85 5.0 7.0 0.00 0.50 0.00 56 1027.4
20260831194232 74 129 10.0 10.0 0.00 0.50 0.00 57 1027.6
20260831193732 74 107 5.0 8.0 0.00 0.50 0.00 56 1027.9
20260831193232 74 105 4.0 9.0 0.00 0.50 0.00 55 1027.5
20260831192733 75 114 4.0 8.0 0.00 0.50 0.00 58 1027.8
20260831192232 74 105 4.0 9.0 0.00 0.50 0.00 59 1027.9
20260831191733 73 92 3.0 8.0 0.00 0.50 0.00 59 1028.1
20260831191232 73 106 6.0 9.0 0.00 0.50 0.00 59 1027.7
20260831190732 73 115 10.0 12.0 0.00 0.50 0.00 59 1027.9
20260831190233 74 70 5.0 8.0 0.00 0.50 0.00 53 1027.8
20260831185732 75 78 5.0 10.0 0.00 0.50 0.00 57 1027.5
20260831185232 75 104 6.0 9.0 0.00 0.50 0.00 59 1027.7
20260831184732 75 155 6.0 10.0 0.00 0.50 0.00 55 1027.5
20260831184232 74 110 4.0 5.0 0.00 0.50 0.00 59 1027.9
20260831183732 74 104 4.0 9.0 0.00 0.50 0.00 59 1028.0
20260831183232 74 61 4.0 8.0 0.00 0.50 0.00 58 1028.0
20260831182733 73 92 1.0 3.0 0.00 0.50 0.00 59 1028.2
20260831182232 74 109 6.0 9.0 0.00 0.50 0.00 58 1028.1
20260831181732 74 70 5.0 8.0 0.00 0.50 0.00 58 1028.0
20260831181232 73 221 2.0 5.0 0.00 0.50 0.00 61 1028.3
20260831180732 73 154 6.0 8.0 0.00 0.50 0.00 59 1028.2
20260831180232 74 123 4.0 4.0 0.00 0.50 0.00 60 1028.3
20260831175732 74 165 2.0 4.0 0.00 0.50 0.00 59 1028.5
20260831175232 73 22 4.0 4.0 0.00 0.50 0.00 63 1028.4
20260831174732 72 303 2.0 2.0 0.00 0.50 0.00 61 1028.7
20260831174233 72 255 0.0 3.0 0.00 0.50 0.00 63 1028.5
20260831173732 72 122 3.0 4.0 0.00 0.50 0.00 63 1028.6
20260831173233 72 111 2.0 5.0 0.00 0.50 0.00 63 1028.7
20260831172732 72 116 4.0 6.0 0.00 0.50 0.00 64 1028.6
20260831172232 71 48 0.0 2.0 0.00 0.50 0.00 64 1028.5
20260831171733 71 148 2.0 4.0 0.00 0.50 0.00 64 1028.9
20260831171232 71 139 3.0 6.0 0.00 0.50 0.00 65 1028.9
20260831170732 70 150 2.0 4.0 0.00 0.50 0.00 68 1028.8
20260831170232 69 87 3.0 5.0 0.00 0.50 0.00 70 1029.0
20260831165732 68 96 1.0 2.0 0.00 0.50 0.00 69 1028.9
20260831165232 68 82 4.0 6.0 0.00 0.50 0.00 71 1029.1
20260831164732 68 75 2.0 4.0 0.00 0.50 0.00 71 1029.2
20260831164232 67 98 3.0 5.0 0.00 0.50 0.00 71 1029.2
20260831163732 67 93 2.0 4.0 0.00 0.50 0.00 72 1029.2
20260831163232 67 92 4.0 6.0 0.00 0.50 0.00 73 1029.0
20260831162732 66 70 2.0 4.0 0.00 0.50 0.00 74 1028.7
20260831162233 65 50 3.0 6.0 0.00 0.50 0.00 74 1028.8
20260831161732 65 69 3.0 6.0 0.00 0.50 0.00 74 1029.1
20260831161232 64 70 6.0 6.0 0.00 0.50 0.00 74 1028.9
20260831160733 64 51 4.0 5.0 0.00 0.50 0.00 74 1028.9
20260831160232 64 48 4.0 5.0 0.00 0.50 0.00 75 1028.6
20260831155733 64 67 4.0 6.0 0.00 0.50 0.00 74 1029.0
20260831155233 64 42 5.0 5.0 0.00 0.50 0.00 77 1028.9
20260831154733 64 57 4.0 5.0 0.00 0.50 0.00 78 1028.9
20260831154232 63 17 4.0 6.0 0.00 0.50 0.00 78 1029.2
20260831153732 62 42 5.0 5.0 0.00 0.50 0.00 78 1029.4
20260831153232 62 35 7.0 7.0 0.00 0.50 0.00 79 1029.1
20260831152732 62 35 2.0 5.0 0.00 0.50 0.00 80 1029.2
20260831152232 61 66 4.0 6.0 0.00 0.50 0.00 81 1029.0
20260831151733 61 59 6.0 7.0 0.00 0.50 0.00 82 1029.3
20260831151232 60 75 6.0 7.0 0.00 0.50 0.00 83 1029.0
20260831150732 60 85 4.0 7.0 0.00 0.50 0.00 84 1029.4
20260831150232 59 76 5.0 7.0 0.00 0.50 0.00 84 1029.5
20260831145732 59 55 5.0 6.0 0.00 0.50 0.00 86 1029.6
20260831145232 58 76 4.0 6.0 0.00 0.50 0.00 86 1029.7
20260831144732 58 66 5.0 6.0 0.00 0.50 0.00 87 1029.7
20260831144232 57 51 3.0 5.0 0.00 0.50 0.00 89 1029.6
20260831143733 57 77 3.0 5.0 0.00 0.50 0.00 89 1029.8
20260831143232 56 76 4.0 5.0 0.00 0.50 0.00 88 1029.9
20260831142732 56 78 3.0 5.0 0.00 0.50 0.00 89 1029.7
20260831142232 56 82 3.0 4.0 0.00 0.50 0.00 90 1030.1
20260831141733 56 86 2.0 6.0 0.00 0.50 0.00 90 1029.9
20260831141232 56 58 5.0 7.0 0.00 0.50 0.00 90 1030.1
20260831140732 55 35 5.0 7.0 0.00 0.50 0.00 90 1029.6
20260831140232 55 39 6.0 7.0 0.00 0.57 0.00 90 1029.5
20260831135733 55 47 5.0 6.0 0.00 0.57 0.00 91 1029.5
20260831135232 55 74 4.0 6.0 0.00 0.57 0.00 91 1028.7
20260831134732 55 57 4.0 8.0 0.00 0.57 0.00 91 1028.6
20260831134232 55 27 4.0 6.0 0.00 0.57 0.00 92 1028.5
20260831133733 55 30 2.0 4.0 0.00 0.57 0.00 93 1028.4
20260831133232 54 85 2.0 2.0 0.00 0.57 0.00 92 1028.6
20260831132732 54 60 2.0 4.0 0.00 0.57 0.00 92 1028.7
20260831132232 54 71 2.0 3.0 0.00 0.57 0.00 93 1028.5
20260831131733 53 126 2.0 4.0 0.00 0.57 0.00 93 1028.6
20260831131232 53 123 2.0 3.0 0.00 0.57 0.00 93 1028.7
20260831130732 53 115 0.0 2.0 0.00 0.57 0.00 93 1028.6
20260831130232 53 99 1.0 2.0 0.00 0.57 0.00 93 1028.3
20260831125732 53 228 0.0 1.0 0.00 0.57 0.00 92 1028.1
20260831125232 53 99 1.0 2.0 0.00 0.57 0.00 92 1028.1
20260831124731 53 89 0.0 2.0 0.00 0.57 0.00 92 1028.0
20260831124231 53 120 1.0 3.0 0.00 0.57 0.00 92 1027.9
20260831123731 53 118 2.0 3.0 0.00 0.57 0.00 92 1028.1
20260831123231 53 38 1.0 4.0 0.00 0.57 0.00 92 1027.9
20260831122731 53 15 2.0 4.0 0.00 0.57 0.00 93 1027.8
20260831122231 53 35 2.0 4.0 0.00 0.57 0.00 92 1027.9